CAPE
0 0 0 0 0 0 0 0 0 0 0 0 0 0 0 0 0 0 0 0 0 0 14 0 0 0 0 0 0 0 0 0 0 0 0 0 0 0 0 0 0 0 0 0 0 0 0 0 0
0 0 0 0 0 0 0 0 0 0 0 0 0 0 0 0 0 0 0 0 0 4 4 1 0 0 0 0 0 0 0 0 0 0 0 0 0 0 0 0 0 0 0 0 0 0 0 0 0
0 0 0 0 0 0 0 0 0 0 0 0 0 0 0 0 0 0 0 0 0 14 18 16 0 0 0 0 0 0 0 0 0 0 0 0 0 0 0 0 0 0 0 0 0 0 0 0 0
0 0 0 0 0 0 0 0 0 0 0 0 0 0 0 0 0 0 0 0 0 20 7 24 0 0 0 0 0 0 0 0 0 0 0 0 0 0 0 0 0 0 0 0 0 10 11 7 19
0 0 0 0 0 0 0 0 0 0 0 0 0 0 0 0 0 1 0 0 1 2 12 7 8 0 0 0 0 0 0 0 0 0 0 0 0 0 0 0 0 0 9 15 38 61 62 90 169
0 0 0 0 0 0 0 0 0 0 0 0 0 0 0 0 8 6 0 0 56 47 98 82 174 3 0 0 0 0 0 0 0 0 0 0 0 0 0 0 0 7 42 87 123 181 195 235 369
0 0 0 0 0 0 0 0 0 0 0 0 0 0 0 0 5 39 44 68 98 165 122 57 180 130 14 23 3 0 0 0 0 0 0 0 0 0 0 0 9 30 58 94 152 197 316 451 457
0 0 0 0 0 0 0 0 0 0 0 0 0 0 0 0 19 75 100 105 91 147 112 9 43 280 83 128 183 0 0 0 0 0 0 0 0 0 0 0 25 48 83 132 211 342 552 614 464
0 0 0 0 0 0 0 0 0 0 0 0 0 0 0 0 37 39 40 97 87 47 28 15 5 100 134 119 225 138 35 9 12 25 6 9 8 16 13 9 30 50 163 271 376 486 626 682 423
0 0 0 0 0 0 0 0 0 0 0 0 0 0 0 0 0 0 0 3 34 51 26 13 12 39 116 79 134 298 183 92 115 112 116 90 117 106 20 57 34 95 249 392 552 677 684 528 312
0 0 0 0 0 0 0 0 0 0 0 0 0 0 0 0 0 0 0 0 0 0 74 73 69 95 94 155 194 169 229 176 222 193 232 248 236 161 134 99 140 151 237 482 648 777 704 602 416
0 0 0 0 0 0 0 0 0 0 0 0 0 0 0 0 0 0 0 0 0 0 0 11 85 107 138 150 154 137 129 164 113 180 291 260 223 170 162 117 141 292 183 491 811 847 962 912 580
0 0 0 0 0 0 0 0 0 0 0 0 0 0 0 0 0 0 0 0 0 0 0 0 0 5 67 148 157 152 144 158 117 126 270 265 161 201 192 184 147 154 256 285 756 874 974 942 680
0 0 0 0 0 0 0 0 0 0 0 0 0 0 0 0 0 0 0 0 0 0 0 0 0 0 9 35 104 140 155 184 183 142 217 312 191 225 158 148 103 5 1 120 561 868 887 861 545
0 0 0 0 0 0 0 0 0 0 0 0 0 0 0 0 0 0 0 0 0 0 0 0 0 0 0 7 23 113 154 151 200 193 236 279 296 278 74 77 111 15 6 6 270 619 584 599 528
0 0 0 0 0 0 0 0 0 0 0 0 0 0 0 0 0 0 0 0 0 0 0 0 0 0 0 0 6 95 184 167 204 241 232 297 353 282 160 44 41 26 0 16 129 524 415 572 617
0 0 0 0 0 0 0 0 0 0 0 0 0 0 0 0 0 0 0 0 0 0 0 0 0 0 0 0 33 130 187 171 232 270 279 364 365 287 160 97 16 3 34 58 277 556 457 664 703
0 0 0 0 0 0 0 0 0 0 0 0 0 0 0 0 0 0 0 0 0 0 0 0 0 0 0 0 72 267 340 271 292 340 383 382 347 312 333 207 87 104 71 69 487 590 574 652 769
0 0 0 0 0 0 0 0 0 0 0 0 0 0 0 0 0 0 0 0 0 0 0 0 0 0 0 0 22 129 241 471 473 473 485 447 509 525 437 287 249 126 111 181 664 544 646 661 330
0 0 0 0 0 0 0 0 0 0 0 0 0 0 0 0 0 0 0 0 0 0 0 0 0 0 0 0 51 308 514 500 538 535 658 719 690 660 556 387 269 140 212 529 559 594 312 279 149
0 0 0 0 0 0 0 0 0 0 0 0 0 0 0 0 0 0 0 0 0 0 0 0 0 0 0 1 222 384 461 280 484 640 650 721 687 683 542 492 317 260 658 712 512 531 309 491 19
0 0 0 0 0 0 0 0 0 0 0 0 0 0 0 0 0 0 0 0 0 0 0 0 0 0 0 30 193 272 403 297 570 545 681 697 780 706 543 489 474 658 643 437 445 592 270 250 117
0 0 0 0 0 0 0 0 0 0 0 0 0 0 0 0 0 0 0 0 0 0 0 0 0 0 0 87 288 483 568 745 855 882 848 874 914 813 644 673 797 811 364 379 562 313 89 44 46
0 0 0 0 0 0 0 0 0 0 0 0 0 0 0 0 0 0 0 0 0 0 0 0 0 2 71 191 327 558 641 671 855 1019 1026 984 897 860 774 752 708 622 351 370 188 150 123 15 26
0 1 0 0 1 0 0 0 0 0 0 0 0 0 0 0 0 0 0 0 0 0 0 0 162 129 353 491 616 762 838 896 1057 1133 936 593 604 663 496 564 527 418 291 193 68 43 55 93 40
0 0 8 0 0 0 0 0 0 0 0 0 0 0 0 0 0 0 0 0 0 50 171 344 575 482 649 700 704 710 852 1007 1065 824 637 481 443 465 475 488 309 209 157 40 27 109 167 121 114
4 2 0 0 0 0 0 0 0 0 0 0 0 0 0 0 0 0 0 0 244 450 669 1005 931 894 822 660 603 679 692 738 612 534 435 345 387 416 373 307 232 149 87 79 93 114 246 196 39
0 5 1 0 0 0 0 0 0 0 0 0 0 0 0 0 0 0 0 200 675 944 1080 1055 956 887 714 670 566 515 505 463 329 270 267 326 332 272 237 158 57 3 33 167 369 410 389 248 27
1 0 9 1 0 0 0 0 0 0 0 0 0 0 0 41 1 30 362 758 914 1078 1075 934 796 733 645 516 407 360 268 183 180 236 258 260 195 130 30 0 0 130 240 224 217 332 340 53 34
0 0 0 14 0 0 0 0 0 0 0 0 0 0 0 82 129 352 639 914 1082 1146 986 892 723 641 440 291 234 186 157 172 176 162 153 113 54 0 0 4 125 256 247 204 116 96 46 5 17
CIN
-0 -0 -0 -0 -0 -0 -0 -0 -0 -0 -0 -0 -0 -0 -0 -0 -0 -0 -0 -0 -0 -0 -620 -1 -0 -0 -0 -0 -0 -0 -0 -0 -0 -0 -0 -0 -0 -0 -0 -0 -0 -0 -0 -0 -0 -0 -0 -0 -0
-0 -0 -0 -0 -0 -0 -0 -0 -0 -0 -0 -0 -0 -0 -0 -0 -0 -0 -0 -0 -0 -236 -618 -387 -0 -0 -0 -0 -0 -0 -0 -0 -0 -0 -0 -0 -0 -0 -0 -0 -0 -0 -0 -0 -0 -0 -0 -0 -0
-0 -0 -0 -0 -0 -0 -0 -0 -0 -0 -0 -0 -0 -0 -0 -0 -0 -0 -0 -0 -0 -517 -606 -638 -0 -0 -0 -0 -0 -0 -0 -0 -0 -0 -0 -0 -0 -0 -0 -0 -0 -0 -0 -0 -0 -0 -0 -0 -0
-0 -0 -0 -0 -0 -0 -0 -0 -0 -0 -0 -0 -0 -0 -0 -0 -0 -0 -0 -0 -0 -545 -621 -671 -0 -0 -0 -0 -0 -0 -0 -0 -0 -0 -0 -0 -0 -0 -0 -0 -0 -0 -0 -0 -0 -354 -301 -250 -214
-0 -0 -0 -0 -0 -0 -0 -0 -0 -0 -0 -0 -0 -0 -0 -0 -10 -221 -0 -0 -91 -474 -597 -666 -564 -0 -0 -0 -0 -0 -0 -0 -0 -0 -0 -0 -0 -0 -0 -0 -0 -0 -453 -420 -345 -278 -246 -207 -139
-0 -0 -0 -0 -0 -0 -0 -0 -0 -0 -0 -0 -0 -0 -0 -0 -177 -257 -0 -132 -354 -420 -519 -585 -625 -172 -0 -0 -0 -0 -0 -0 -0 -0 -0 -0 -0 -0 -0 -0 -0 -244 -389 -326 -259 -208 -193 -162 -100
-0 -0 -0 -0 -0 -0 -0 -0 -0 -0 -0 -0 -0 -0 -0 -0 -232 -257 -297 -334 -382 -444 -523 -577 -540 -637 -555 -671 -345 -0 -0 -0 -0 -0 -0 -0 -0 -0 -0 -0 -542 -481 -403 -329 -286 -241 -176 -120 -104
-0 -0 -0 -0 -0 -0 -0 -0 -0 -0 -0 -0 -0 -0 -0 -0 -244 -264 -296 -333 -391 -430 -470 -549 -600 -549 -569 -580 -587 -12 -0 -0 -0 -0 -0 -0 -0 -0 -0 -0 -514 -465 -401 -353 -295 -223 -124 -84 -113
-0 -0 -0 -0 -0 -0 -0 -0 -0 -0 -0 -0 -0 -0 -0 -0 -280 -214 -221 -218 -239 -342 -424 -554 -596 -562 -559 -530 -544 -617 -656 -613 -408 -681 -232 -643 -592 -558 -517 -498 -475 -449 -374 -314 -242 -179 -113 -67 -121
-0 -0 -0 -0 -0 -0 -0 -0 -0 -0 -0 -0 -0 -0 -0 -0 -0 -0 -0 -73 -189 -167 -246 -393 -360 -543 -555 -574 -575 -562 -559 -603 -604 -616 -570 -577 -509 -489 -488 -449 -482 -417 -324 -245 -170 -115 -77 -95 -113
-0 -0 -0 -0 -0 -0 -0 -0 -0 -0 -0 -0 -0 -0 -0 -0 -0 -0 -0 -0 -0 -0 -209 -300 -408 -500 -508 -530 -563 -577 -542 -573 -546 -568 -534 -491 -492 -505 -475 -426 -384 -369 -315 -174 -113 -61 -53 -51 -76
-0 -0 -0 -0 -0 -0 -0 -0 -0 -0 -0 -0 -0 -0 -0 -0 -0 -0 -0 -0 -0 -0 -0 -207 -344 -435 -505 -505 -531 -555 -557 -606 -622 -593 -524 -491 -525 -519 -481 -449 -397 -302 -300 -168 -74 -36 -6 -2 -33
-0 -0 -0 -0 -0 -0 -0 -0 -0 -0 -0 -0 -0 -0 -0 -0 -0 -0 -0 -0 -0 -0 -0 -0 -0 -330 -443 -470 -491 -551 -571 -606 -616 -637 -581 -558 -589 -550 -495 -438 -397 -344 -251 -220 -70 -23 -1 -0 -6
-0 -0 -0 -0 -0 -0 -0 -0 -0 -0 -0 -0 -0 -0 -0 -0 -0 -0 -0 -0 -0 -0 -0 -0 -0 -0 -446 -417 -460 -499 -625 -633 -648 -660 -635 -585 -605 -564 -532 -461 -440 -213 -242 -285 -120 -31 -11 -1 -6
-0 -0 -0 -0 -0 -0 -0 -0 -0 -0 -0 -0 -0 -0 -0 -0 -0 -0 -0 -0 -0 -0 -0 -0 -0 -0 -0 -401 -448 -549 -600 -699 -656 -652 -665 -596 -566 -537 -585 -500 -450 -467 -457 -388 -292 -185 -100 -28 -11
-0 -0 -0 -0 -0 -0 -0 -0 -0 -0 -0 -0 -0 -0 -0 -0 -0 -0 -0 -0 -0 -0 -0 -0 -0 -0 -0 -0 -165 -554 -603 -699 -647 -652 -644 -578 -541 -539 -546 -522 -521 -467 -5 -403 -258 -85 -123 -35 -6
-0 -0 -0 -0 -0 -0 -0 -0 -0 -0 -0 -0 -0 -0 -0 -0 -0 -0 -0 -0 -0 -0 -0 -0 -0 -0 -0 -0 -519 -613 -695 -723 -658 -664 -640 -571 -534 -526 -510 -520 -542 -258 -426 -361 -155 -53 -58 -12 -2
-0 -0 -0 -0 -0 -0 -0 -0 -0 -0 -0 -0 -0 -0 -0 -0 -0 -0 -0 -0 -0 -0 -0 -0 -0 -0 -0 -0 -669 -664 -661 -709 -676 -651 -601 -563 -536 -519 -447 -449 -457 -386 -349 -269 -62 -26 -27 -7 -1
-0 -0 -0 -0 -0 -0 -0 -0 -0 -0 -0 -0 -0 -0 -0 -0 -0 -0 -0 -0 -0 -0 -0 -0 -0 -0 -0 -0 -599 -641 -571 -627 -611 -590 -571 -525 -458 -420 -387 -403 -364 -343 -282 -168 -31 -17 -9 -0 -23
-0 -0 -0 -0 -0 -0 -0 -0 -0 -0 -0 -0 -0 -0 -0 -0 -0 -0 -0 -0 -0 -0 -0 -0 -0 -0 -0 -0 -558 -599 -564 -612 -554 -543 -472 -409 -388 -367 -318 -317 -309 -311 -223 -39 -24 -25 -36 -24 -28
-0 -0 -0 -0 -0 -0 -0 -0 -0 -0 -0 -0 -0 -0 -0 -0 -0 -0 -0 -0 -0 -0 -0 -0 -0 -0 -0 -36 -629 -625 -624 -671 -547 -470 -441 -374 -359 -308 -286 -259 -283 -221 -40 -25 -11 -32 -31 -0 -9
-0 -0 -0 -0 -0 -0 -0 -0 -0 -0 -0 -0 -0 -0 -0 -0 -0 -0 -0 -0 -0 -0 -0 -0 -0 -0 -0 -637 -549 -476 -324 -360 -459 -461 -378 -331 -288 -241 -233 -239 -172 -61 -46 -40 -30 -17 -21 -3 -1
-0 -0 -0 -0 -0 -0 -0 -0 -0 -0 -0 -0 -0 -0 -0 -0 -0 -0 -0 -0 -0 -0 -0 -0 -0 -0 -0 -636 -558 -471 -377 -376 -363 -328 -306 -245 -198 -167 -168 -106 -36 -29 -64 -44 -24 -18 -27 -21 -6
-0 -0 -0 -0 -0 -0 -0 -0 -0 -0 -0 -0 -0 -0 -0 -0 -0 -0 -0 -0 -0 -0 -0 -0 -0 -115 -671 -611 -550 -450 -386 -377 -321 -265 -213 -179 -155 -130 -83 -45 -35 -37 -60 -39 -33 -23 -17 -12 -18
-0 -2 -0 -0 -2 -0 -0 -0 -0 -0 -0 -0 -0 -0 -0 -0 -0 -0 -0 -0 -0 -0 -0 -0 -578 -577 -555 -513 -475 -398 -350 -322 -248 -195 -207 -252 -192 -115 -92 -50 -46 -43 -43 -38 -39 -38 -22 -11 -14
-0 -0 -6 -0 -0 -0 -0 -0 -0 -0 -0 -0 -0 -0 -0 -0 -0 -0 -0 -0 -0 -468 -585 -570 -483 -493 -471 -436 -396 -379 -325 -247 -187 -198 -206 -178 -136 -80 -62 -41 -46 -45 -39 -50 -45 -14 -1 -18 -9
-4 -10 -0 -0 -0 -0 -0 -0 -0 -0 -0 -0 -0 -0 -0 -0 -0 -0 -0 -0 -441 -479 -440 -360 -373 -372 -358 -371 -380 -328 -296 -239 -224 -209 -174 -152 -103 -58 -49 -45 -33 -36 -34 -22 -18 -8 -1 -2 -24
-0 -3 -3 -0 -0 -0 -0 -0 -0 -0 -0 -0 -0 -0 -0 -0 -0 -0 -0 -492 -397 -352 -314 -306 -307 -302 -327 -329 -328 -312 -274 -237 -229 -197 -148 -97 -69 -53 -43 -36 -30 -48 -44 -17 -6 -1 -0 -7 -48
-4 -1 -8 -11 -0 -0 -0 -0 -0 -0 -0 -0 -0 -0 -0 -447 -56 -496 -446 -352 -329 -278 -269 -282 -291 -290 -304 -316 -312 -283 -263 -246 -209 -140 -111 -82 -76 -68 -110 -0 -0 -19 -13 -14 -12 -0 -0 -25 -32
-0 -0 -0 -6 -0 -0 -0 -0 -0 -0 -0 -0 -0 -0 -0 -409 -451 -394 -325 -303 -261 -243 -253 -254 -268 -270 -287 -299 -291 -262 -239 -187 -154 -134 -125 -114 -127 -2 -0 -13 -17 -8 -10 -12 -15 -6 -13 -26 -28
Wind_Speed
14 14 14 13 13 14 19 14 10 8 8 9 8 7 9 7 7 11 12 17 13 15 17 18 17 17 18 19 19 18 17 16 16 16 16 16 16 17 17 17 17 18 18 19 19 19 19 18 16
11 13 15 13 15 18 17 11 9 5 11 16 6 6 5 4 4 12 11 14 12 14 14 16 16 15 15 16 17 17 16 15 14 14 14 14 14 15 15 16 16 17 17 18 19 19 19 19 18
11 16 15 14 15 16 16 10 8 11 16 16 11 8 8 11 5 9 9 14 12 11 11 13 15 14 14 14 15 15 14 14 13 12 12 12 12 13 13 14 15 15 16 16 17 18 18 18 18
16 17 19 22 18 18 16 13 10 18 16 11 10 12 11 11 7 8 12 13 10 11 11 11 11 13 12 12 13 12 11 11 11 11 10 10 11 11 11 12 13 13 14 14 15 16 17 18 18
19 20 23 26 27 21 22 21 22 24 20 17 10 12 10 10 7 5 10 10 9 8 9 10 9 10 10 10 10 9 9 9 8 8 9 9 8 9 9 10 10 11 12 12 13 14 15 16 17
22 20 27 33 28 21 22 24 24 22 20 16 13 11 10 8 5 7 8 8 7 7 6 5 6 8 9 8 6 4 5 6 5 6 7 7 6 6 7 7 8 9 10 10 11 12 14 16 17
24 26 31 30 29 28 26 26 21 20 13 11 11 7 10 6 5 5 6 5 6 6 5 3 5 5 6 3 3 3 2 4 4 4 4 5 4 4 4 5 5 6 7 8 9 11 13 15 17
25 26 32 32 32 31 22 19 19 13 12 14 9 10 8 6 4 5 5 6 7 7 5 2 2 2 2 2 3 3 3 4 4 5 4 3 1 0 1 3 3 4 5 7 8 10 13 14 16
23 33 37 34 28 28 24 24 21 17 18 14 9 8 10 6 5 8 9 7 8 6 4 2 1 3 4 4 4 5 6 6 6 6 6 4 3 3 2 1 2 3 4 5 7 10 11 13 14
30 35 35 33 33 31 32 30 24 21 21 18 14 10 9 10 10 13 13 14 9 7 6 5 5 6 6 6 6 7 7 7 7 7 7 6 5 5 4 4 2 3 4 6 8 10 11 12 14
34 41 39 39 35 32 35 37 27 28 30 25 20 19 21 26 23 21 21 21 21 12 11 9 9 9 9 8 9 9 9 9 9 9 8 7 6 6 6 6 5 6 6 9 9 10 10 11 12
43 42 42 42 35 34 39 40 41 35 35 29 33 31 29 29 32 30 26 27 25 15 13 15 11 12 11 12 12 11 11 12 12 11 11 10 9 9 7 7 6 8 11 10 12 12 12 12 12
48 47 42 47 41 38 37 50 46 46 42 41 42 42 40 35 30 28 27 26 24 21 21 20 19 15 13 14 15 14 13 13 13 12 12 13 12 10 9 8 8 10 12 13 15 14 14 13 12
40 47 51 45 43 45 45 54 48 51 38 42 42 44 40 38 36 35 31 31 27 25 24 24 23 19 17 17 17 16 15 13 12 13 13 14 13 11 11 10 9 11 11 13 15 15 15 12 13
43 52 45 47 49 45 35 55 67 51 49 48 49 47 50 47 44 41 37 34 30 27 26 25 28 24 20 19 18 17 14 12 12 13 12 12 13 13 12 12 10 10 11 11 10 12 11 13 15
41 44 57 51 42 42 36 64 72 50 51 53 52 50 52 50 44 40 34 31 30 29 30 33 32 27 23 20 19 16 13 12 13 12 11 11 11 11 12 12 12 11 11 9 10 10 11 14 14
41 53 52 53 43 41 38 62 61 53 49 52 51 49 49 48 44 39 38 36 34 33 37 41 35 31 27 23 18 16 15 14 13 11 10 10 10 10 10 11 12 11 9 10 11 10 13 14 14
49 52 53 53 41 41 47 65 53 42 42 49 48 48 50 51 50 45 43 40 42 43 41 37 34 31 26 23 19 17 15 14 12 12 11 10 10 9 10 10 9 9 8 9 9 11 12 13 15
45 39 52 47 38 43 49 60 55 50 55 59 57 55 56 55 53 50 51 49 47 44 41 36 34 28 23 20 18 15 14 12 13 11 10 9 9 9 9 7 6 7 7 7 7 12 12 14 17
48 49 43 38 38 39 43 53 50 48 51 54 57 58 56 56 53 48 47 48 46 45 42 39 34 29 23 17 15 16 11 13 12 11 9 8 8 8 5 5 5 4 5 6 8 10 14 15 14
45 50 50 43 36 40 44 58 55 51 48 50 52 53 55 55 55 52 50 46 40 38 37 34 34 29 22 17 14 13 12 13 12 11 10 8 5 3 2 2 3 2 3 4 7 10 11 13 14
49 38 40 45 46 51 33 57 45 42 47 45 46 46 49 50 49 50 45 42 37 36 31 32 31 25 20 14 12 11 11 12 12 10 7 3 0 1 3 2 1 2 5 6 8 10 10 11 12
46 39 37 35 40 44 49 53 56 41 51 45 42 42 43 46 46 46 45 39 38 34 34 31 26 20 15 11 9 7 9 11 9 6 3 2 3 3 3 3 3 4 5 7 9 9 8 8 9
32 38 43 42 41 53 46 43 61 48 49 46 45 41 39 40 38 36 37 33 32 25 23 23 19 16 13 8 7 6 5 7 6 3 3 4 4 5 5 3 5 6 7 7 9 7 7 7 7
31 33 41 48 51 56 35 41 50 18 28 32 26 29 31 30 30 30 29 27 23 23 23 20 14 11 8 7 6 3 4 4 2 4 4 4 5 4 4 4 5 6 8 9 8 7 7 7 7
33 37 39 50 49 53 38 41 35 32 25 27 30 31 29 31 30 30 25 20 23 20 15 9 6 4 4 3 1 2 4 4 5 5 5 6 6 5 5 6 7 9 10 8 7 9 8 7 7
27 36 38 32 34 43 37 45 46 39 31 24 24 25 30 31 32 27 18 20 16 10 6 3 3 3 3 3 3 4 5 5 5 6 6 6 7 7 7 8 9 9 8 7 8 9 7 6 7
23 23 34 35 37 39 35 42 37 25 31 25 24 26 28 30 27 20 16 12 6 4 3 4 5 5 5 5 5 6 6 6 7 7 7 7 7 8 8 9 8 8 8 8 8 7 6 6 7
25 24 28 34 36 32 32 28 26 20 14 16 20 21 24 24 19 16 10 4 1 3 5 6 8 7 6 7 7 8 8 7 7 7 7 8 8 8 9 8 9 9 9 9 9 8 9 7 7
24 23 27 37 43 40 33 28 18 15 15 18 18 20 22 19 16 14 9 2 3 5 5 7 7 7 8 9 10 9 9 8 8 8 8 8 8 8 9 9 10 10 11 12 11 10 9 7 5
Wind_Direction
288 285 285 289 293 292 272 285 300 314 336 358 359 39 121 46 74 355 25 118 86 103 115 123 120 116 110 109 108 106 101 96 95 92 91 89 80 74 68 65 63 60 56 52 47 44 43 39 32
291 282 279 289 284 269 271 287 283 323 319 313 11 357 19 22 47 17 78 108 92 104 109 121 122 114 113 111 113 112 104 98 97 95 93 89 80 74 69 62 61 59 55 53 50 49 48 45 40
285 276 279 282 276 265 271 275 284 307 306 301 317 335 339 338 6 33 65 106 95 99 107 118 123 118 118 115 118 115 107 103 102 100 97 90 81 73 69 61 57 58 56 51 49 48 46 42 38
275 273 277 269 266 266 267 286 286 295 308 313 303 311 326 338 6 80 96 101 88 104 114 122 124 127 123 120 124 118 109 106 102 105 105 96 87 84 74 66 63 64 62 53 50 47 43 37 30
271 267 267 266 262 266 267 277 278 286 295 291 299 305 331 337 1 57 102 101 89 85 111 124 135 131 134 131 131 122 116 114 111 112 111 111 98 91 83 67 63 63 63 58 48 43 38 32 25
266 270 264 261 262 268 273 273 276 285 292 288 289 297 318 340 42 87 96 96 64 86 93 110 137 142 145 144 140 120 123 124 125 123 125 126 112 100 87 79 72 61 58 57 47 35 30 24 15
268 265 263 264 264 266 269 267 273 280 298 296 298 294 314 319 349 46 69 52 43 37 60 91 139 156 157 164 172 162 167 156 154 157 150 145 128 105 93 95 77 66 54 45 37 28 20 17 9
267 268 264 262 261 263 269 272 271 267 282 297 300 297 309 317 7 11 24 8 356 356 8 37 135 163 213 246 225 215 221 202 196 204 194 196 205 296 85 94 91 54 39 33 30 17 12 11 8
267 263 262 260 261 262 266 265 270 276 275 285 300 315 321 339 13 4 351 337 337 337 339 342 261 284 271 265 256 237 236 225 223 218 213 239 258 274 301 321 5 8 12 14 12 5 4 7 7
258 261 260 262 260 263 261 263 266 267 267 272 281 311 322 326 326 330 334 331 326 313 309 300 290 277 284 278 267 256 247 242 241 232 226 239 268 278 282 287 293 329 341 348 352 353 356 1 2
260 259 262 261 262 262 260 258 266 263 263 265 271 283 292 288 299 308 312 316 321 315 313 307 297 284 273 279 289 280 267 263 263 245 247 244 254 268 283 297 296 318 323 339 340 344 349 353 356
261 262 261 262 264 262 259 261 260 261 261 269 273 281 286 288 289 295 305 308 314 316 317 316 304 294 284 286 286 287 267 262 263 258 254 256 264 271 272 283 290 310 321 329 331 337 339 341 344
259 260 263 259 262 262 265 256 260 261 262 267 271 273 277 285 292 298 302 304 306 305 309 310 311 303 295 287 291 288 276 267 254 259 255 251 257 259 263 277 285 305 317 321 324 328 330 332 337
266 263 261 262 262 260 261 258 262 258 265 266 270 272 278 285 291 295 298 298 297 296 301 305 308 305 301 294 287 284 282 272 264 260 258 253 258 259 267 273 275 292 306 316 320 324 328 329 332
267 262 265 260 258 260 263 260 252 260 264 268 269 272 274 280 286 289 293 295 295 294 297 301 303 305 301 296 289 287 282 272 272 270 258 255 258 267 265 272 266 278 293 299 309 318 324 325 327
265 263 259 257 259 261 255 258 251 263 265 266 268 273 276 278 284 288 291 295 295 292 295 297 301 301 299 298 298 289 282 279 285 282 269 260 263 269 272 270 264 273 286 298 314 325 324 323 325
262 259 259 261 257 257 253 258 261 263 266 266 268 273 276 279 282 287 288 293 292 291 292 294 299 302 302 300 297 294 290 286 290 289 280 273 272 278 274 272 270 270 287 303 315 323 323 327 327
261 261 261 261 261 257 256 257 262 266 267 266 269 275 276 278 282 286 287 288 288 288 290 294 299 304 304 302 299 299 293 291 289 291 283 281 283 271 281 285 278 276 287 301 315 320 329 332 330
264 272 262 263 263 259 258 260 262 265 265 264 268 272 274 278 282 284 281 283 286 285 286 292 297 303 307 304 299 295 292 291 294 290 284 283 283 285 285 288 281 278 286 297 310 329 335 333 333
259 260 264 267 264 263 263 262 264 264 266 267 268 270 274 276 279 283 282 282 283 281 280 285 292 300 302 300 303 309 304 303 302 300 294 288 288 290 284 290 294 283 298 307 322 334 335 335 339
258 256 256 261 266 267 268 263 263 264 268 269 269 270 271 272 271 274 276 281 285 284 280 282 290 295 298 295 297 307 312 317 309 304 303 295 290 284 293 307 314 298 323 318 329 335 337 339 340
254 259 258 256 258 258 264 263 263 265 266 269 272 274 274 273 275 273 276 280 285 284 285 285 289 295 298 291 282 285 298 308 314 315 320 319 348 332 340 15 9 351 334 335 335 341 344 343 343
255 253 255 259 258 259 258 264 261 268 266 271 274 277 276 273 273 273 275 282 282 284 284 286 288 291 296 296 282 286 303 316 324 336 15 19 4 11 30 12 9 350 351 344 345 350 354 0 1
264 252 250 254 256 254 255 261 257 264 267 271 271 274 276 274 277 279 280 283 282 288 290 288 290 289 291 289 287 289 303 322 331 15 57 46 29 14 3 14 355 355 355 354 353 4 12 23 24
259 249 243 244 245 248 259 254 253 281 282 276 275 280 278 284 285 282 282 285 286 285 288 292 291 287 285 293 296 302 324 343 34 96 82 49 23 23 32 16 5 2 355 354 6 12 26 37 44
255 244 243 243 244 245 249 253 255 262 278 280 270 270 280 282 287 281 284 287 277 285 296 306 307 310 306 317 36 13 18 35 72 74 61 29 44 48 34 15 4 357 352 6 14 2 14 27 53
257 246 241 255 249 243 246 251 251 250 259 272 273 277 284 281 283 280 280 269 280 300 319 344 22 26 56 76 43 41 48 69 52 44 44 43 35 29 17 4 358 2 12 25 11 5 41 42 40
263 259 235 240 240 240 246 246 245 253 250 265 278 284 289 287 276 274 267 273 299 328 18 45 61 73 72 63 57 55 53 45 44 45 45 45 29 18 12 2 18 32 32 25 36 43 44 36 61
262 260 244 243 239 241 242 245 245 240 243 263 286 296 293 290 273 262 263 273 29 48 65 66 74 79 72 70 60 58 50 47 45 51 46 35 24 22 17 34 47 44 35 37 31 37 19 21 58
259 266 253 239 233 237 243 240 239 225 251 271 287 295 307 286 264 255 255 252 91 81 81 75 76 74 70 67 67 58 52 50 48 41 30 32 35 31 30 48 47 36 29 23 26 32 26 12 36